Location: Bílinka
(49.3579°N, 14.3767°E)
Time: 08:51:06
(UTC+00:00)

FENGYUN 1C DEB - Pass Details

Date: 25 February 2024
Orbit: 850 x 890 km, 98.8° (Epoch: 12 April)

Event Time Altitude Azimuth Distance (km) Brightness Sun altitude
Rises 18:41:21 0° 187° (S) 3,405 ? -20.8°
Reaches altitude 10° 18:43:53 10° 196° (SSW) 2,477 ? -21.2°
Maximum altitude 18:48:58 38° 263° (W) 1,292 ? -22.0°
Drops below altitude 10° 18:54:07 10° 331° (NNW) 2,512 ? -22.8°
Sets 18:56:43 0° 340° (NNW) 3,460 ? -23.2°
